Location: Cheyres
(46.8153°N, 6.7877°E)
Time: 10:19:55
(UTC+00:00)

Gbstr 26 Del rocket - Pass Details

Date: 17 September 2021
Orbit: 492 x 1263 km, 51.8° (Epoch: 18 October)

Event Time Altitude Azimuth Distance (km) Brightness Sun altitude
Exits shadow 23:57:48 33° 63° (ENE) 1,933 5.6 -40.9°
Drops below altitude 10° 00:01:38 10° 65° (ENE) 3,114 6.9 -40.7°
Sets 00:04:18 0° 66° (ENE) 4,004 7.6 -40.6°
